Location: Unspecified
(14.9670°N, 0.0000°E)
Time: 04:56:02
(UTC+00:00)

ISS - Visible Passes

Search period start: 20 April 2019 00:00
Search period end: 30 April 2019 00:00
Orbit: 408 x 410 km, 51.6° (Epoch: 20 April)

Date Brightness Start Highest point End Pass type
(mag) Time Alt. Az. Time Alt. Az. Time Alt. Az.
20 Apr -0.8 05:15:45 10° SSE 05:17:21 13° SE 05:18:57 10° E visible
22 Apr -3.1 05:08:59 10° SSW 05:12:11 52° SE 05:15:24 10° NE visible
23 Apr -1.5 04:19:47 14° SSE 04:21:29 20° SE 04:24:01 10° ENE visible
24 Apr -2.9 05:04:33 13° WSW 05:07:04 32° NW 05:10:04 10° NNE visible
25 Apr -3.9 04:16:23 83° NNE 04:16:23 83° NNE 04:19:34 10° NE visible
26 Apr -0.4 03:28:05 13° ENE 03:28:05 13° ENE 03:28:30 10° ENE visible
27 Apr -1.6 04:12:26 17° NNW 04:12:26 17° NNW 04:13:42 10° N visible
